Regional Weather Roundup
Issued by NWS

Home | Current Version | Previous Version | Graphics & Text | Print | Product List | Glossary On
Versions: 1 2 3 4 5 6 7 8 9 10 11 12 13 14 15 16 17 18 19 20 21 22 23 24 25 26 27 28 29 30 31 32 33 34 35 36 37 38 39 40 41 42 43 44 45 46 47 48 49 50
000
ASUS43 KMKX 231921
RWRWI

WISCONSIN REGIONAL WEATHER ROUNDUP
NATIONAL WEATHER SERVICE MILWAUKEE/SULLIVAN WI
200 PM CDT SAT JUL 23 2016

NOTE: "FAIR" INDICATES FEW OR NO CLOUDS BELOW 12,000 FEET WITH NO
SIGNIFICANT WEATHER AND/OR OBSTRUCTIONS TO VISIBILITY.

WIZ001-002-006>008-014>016-023>028-232000-
NORTHWEST WISCONSIN

CITY           SKY/WX    TMP DP  RH WIND       PRES   REMARKS
SUPERIOR ARPT  CLOUDY    64  61  87 E12G21    29.91F
ASHLAND        CLOUDY    72  66  81 N10       29.94S
HAYWARD        CLOUDY    79  68  69 S10       29.94F HX  81
SIREN          LGT RAIN  73  68  83 S16G22    29.92F
CUMBERLAND     HVY RAIN  70  68  94 S10       29.95F
RICE LAKE      LGT RAIN  71  67  89 SE7       29.97S
CHETEK         LGT RAIN  70  70  98 SE5       29.96S
LADYSMITH      CLOUDY    78  69  75 S6        29.98F
EAU CLAIRE     LGT RAIN  74  73  97 S8        29.97R
MENOMONIE      RAIN      71  70  99 SE9       29.98R
NEW RICHMOND   HVY RAIN  71  70  98 SE6       29.93F
OSCEOLA        RAIN      72  72 100 SE8       29.92F
$$

WIZ003>005-009-010-017-018-232000-
NORTH CENTRAL WISCONSIN

CITY           SKY/WX    TMP DP  RH WIND       PRES   REMARKS
MANITOWISH WTR CLOUDY    82  65  56 S10       30.00R HX  83
ARBOR VITAE    CLOUDY    82  64  52 S7        30.00S HX  84
WOODRUFF       CLOUDY    82  64  52 S7        30.00S HX  84
RHINELANDER    CLOUDY    83  63  50 S8        30.02S HX  84
EAGLE RIVER    CLOUDY    83  57  41 S8        30.00S HX  83
LAND O LAKES   CLOUDY    85  59  42 SE6       30.01F HX  84
PHILLIPS       CLOUDY    79  70  73 S7        29.99R HX  82
TOMAHAWK       CLOUDY    81  67  63 CALM      30.01S HAZE    HX  83
MEDFORD        CLOUDY    77  72  86 S5        29.99S
MERRILL        CLOUDY    82  69  62 S3        30.00S HX  85
$$

WIZ029-030-035-036-043>047-232000-
CENTRAL WISCONSIN

CITY           SKY/WX    TMP DP  RH WIND       PRES   REMARKS
WAUSAU         CLOUDY    81  68  64 SE8       29.97F HX  84
MOSINEE        SUNNY     79  72  78 SE6       30.00F HX  82
MARSHFIELD     CLOUDY    80  71  74 S13       29.98F HX  84
STEVENS POINT  CLOUDY    79  68  70 SE6       29.99F HX  81
WAUPACA        CLOUDY    85  71  62 S3        29.99F HX  90
WAUTOMA        CLOUDY    82  75  79 CALM      29.98F HX  89
WISC RAPIDS    PTSUNNY   82  71  69 SW12      29.99F HX  86
CAMP DOUGLAS   LGT RAIN  73  70  88 SE5       29.99F
$$

WIZ011>013-019>022-031-037>040-048>050-232000-
NORTHEAST WISCONSIN

CITY           SKY/WX    TMP DP  RH WIND       PRES   REMARKS
ANTIGO         CLOUDY    79  66  64 CALM      30.02S HX  81
SHAWANO        CLOUDY    85  64  48 S5        29.99F HX  86
OCONTO         CLOUDY    84  66  55 SE5       29.98F HX  86
STURGEON BAY   CLOUDY    82  64  54 SE5       30.01S HX  83
GREEN BAY      CLOUDY    85  72  65 SE7       29.98F HX  91
MANITOWOC      CLOUDY    83  60  45 MISG      30.01R HX  83
APPLETON       CLOUDY    84  64  51 VRB5      29.99S HX  86
CLINTONVILLE   CLOUDY    82  70  65 SE3       29.98F HX  86
OSHKOSH        CLOUDY    85  72  65 W3        29.99S HX  91
$$

WIZ032>034-041-042-053>061-232000-
SOUTHWEST WISCONSIN

CITY           SKY/WX    TMP DP  RH WIND       PRES   REMARKS
LA CROSSE      LGT RAIN  73  70  90 E6        29.93F
SPARTA         RAIN      71  70  98 NE5       29.97F
VIROQUA        CLOUDY    70  70 100 E8        29.95F
BOSCOBEL       LGT RAIN  73  71  93 E8        29.94F
PRAIRIE DU CHI CLOUDY    71  69  95 SE8       29.90F
PLATTEVILLE    CLOUDY    70  70 100 NE10      29.98F
$$

WIZ056-057-062-063-064-067-068-232000-
SOUTH CENTRAL WISCONSIN

CITY           SKY/WX    TMP DP  RH WIND       PRES   REMARKS
REEDSBURG      RAIN     N/A N/A N/A SW5       30.01F
BARABOO/DELLS  LGT RAIN  75  72  91 W5        30.02F
LONE ROCK      LGT RAIN  71  70  96 SE7       29.98F
MINERAL POINT  LGT RAIN  72  70  94 E13       30.00F
MADISON        TSTM      80  78  94 VRB3      30.00R HX  88
MIDDLETON      CLOUDY    80  80 100 W5        30.02S HX  86
WATERTOWN      CLOUDY    81  81 100 W6        30.00R HX  92
MONROE         LGT RAIN  79  77  94 N5        30.01S HX  83
JANESVILLE     TSTM      84  75  74 CALM      29.98S HX  92
$$

WIZ051-052-058>065-066-070>072-232000-
SOUTHEAST WISCONSIN

CITY           SKY/WX    TMP DP  RH WIND       PRES   REMARKS
MILWAUKEE      CLOUDY    86  73  65 SE10      29.99S HX  93
WAUKESHA       MOSUNNY   84  72  65 S3        30.00F HX  89
MILWAUKEE/TIMM SUNNY     86  70  58 SE6       30.00F HX  90
RACINE         CLOUDY    85  74  69 SE8       30.01S HX  92
BURLINGTON     CLOUDY    86  76  72 CALM      29.98S HX  97
KENOSHA        LGT RAIN  86  75  69 E8        29.99S HX  95
FOND DU LAC    CLOUDY    86  75  69 SW7       29.99S HX  95
SHEBOYGAN      CLOUDY    83  69  62 CALM      30.00S HX  86
WEST BEND      CLOUDY    86  70  58 S5        30.00R HX  90
JUNEAU         CLOUDY    81  77  87 CALM      30.01F HX  88
$$

LSZ147-162-232000-
LAKE SUPERIOR

STATION/POSITION TIME  TEMP    WIND        PRES    WAVE
                       AIR SEA DIR/SP/G            HT/PER
                 (UTC) (F)     (DEG/KT/KT) (MB)    (FT/S)
W MID LAKE BUOY  1850   61 59   60/ 12/ 12 1014.3F   1
DEVILS ISLAND    1900   63      60/ 10/ 11 1013.9F
PORT WING        1800   67      30/ 14/ 18 1013.2
SAXON HARBOR     1840   70     320/  3/  4 1013.2F
$$

LMZ867-665-643>646-232000-
LAKE MICHIGAN

STATION/POSITION TIME  TEMP    WIND        PRES    WAVE
                       AIR SEA DIR/SP/G            HT/PER
                 (UTC) (F)     (DEG/KT/KT) (MB)    (FT/S)
CHAMBERS ISLAND  1800   78     340/  4/  6 1015.6F
S GREEN BAY BUOY 1900   76 76   60/  6/  8   N/A
N MID LAKE BUOY  1850   72 72   70/  4/  4 1014.8F   1
NORTHPORT PIER   1800   74     130/  5/  6 1015.9S
KEWAUNEE LAKESHO 1800   74      40/  3/  6 1015.6S
SHEBOYGAN LAKESH 1900   70      10/  3/  3 1015.9R
PORT WASHINGTON  1800   72      40/  4/  5 1016.3
MILWAUKEE LAKESH 1910   71      40/  5/  5   N/A
S MID LAKE BUOY  1850   78 77  120/  2/  2 1014.8S   0
KENOSHA   LAKESH 1900   81     150/  4/  6 1014.9F
$$

TC  - TEMPERATURE IN CELSIUS
VSB - VISIBILITY IN STATUTE MILES
WCI - WIND CHILL INDEX
HX  - HEAT INDEX





USA.gov is the U.S. government's official web portal to all federal, state and local government web resources and services.